Location: Obersdorf
(47.4079°N, 10.2781°E)
Time: 04:11:59
(UTC+02:00)

Envisat - Pass Details

Date: 28 September 2021
Orbit: 764 x 766 km, 98.2° (Epoch: 17 October)

Event Time Altitude Azimuth Distance (km) Brightness Sun altitude
Rises 05:44:47 0° 22° (NNE) 3,242 6.8 -15.7°
Reaches altitude 10° 05:47:21 10° 33° (NNE) 2,311 6.2 -15.3°
Maximum altitude 05:51:52 31° 95° (E) 1,321 5.0 -14.6°
Drops below altitude 10° 05:56:20 10° 157° (SSE) 2,295 5.6 -13.8°
Sets 05:58:52 0° 167° (SSE) 3,216 6.2 -13.4°
